GFSCGP_prec_cloud_159.txt.gz
Cloud_Cover
0 0 0 0 2 0 0 4 5 5 6 36 76 100 75 98 100 100 100 77 87 100 87 5 0 0 0 0 4 13 5 5 10 5 16 40 23 26 5 5 84 2 0 5
0 0 0 0 0 4 5 5 30 43 5 69 96 99 94 96 84 60 100 100 100 99 95 53 5 0 0 0 0 31 62 5 5 24 17 5 5 35 87 5 5 56 58 5
0 0 0 1 0 0 0 2 90 32 13 14 7 69 57 69 90 87 100 100 100 82 100 60 31 1 0 0 0 1 2 2 5 5 22 44 5 80 5 5 2 8 2 2
0 0 0 0 0 0 0 0 14 5 5 5 78 44 100 100 88 100 98 100 98 100 86 75 99 6 0 0 0 0 0 0 2 1 6 14 17 10 1 2 4 67 8 5
0 0 0 0 4 0 3 2 0 5 5 6 5 53 100 100 100 100 100 100 100 29 98 84 96 5 5 0 0 0 0 0 0 0 1 30 5 30 5 21 60 100 99 61
0 0 0 0 2 3 1 2 3 0 0 0 0 0 26 34 100 100 100 100 72 99 100 100 15 86 4 4 0 0 2 0 0 3 0 4 3 5 2 13 6 21 9 37
0 0 0 0 0 0 0 0 0 2 0 0 0 0 0 6 100 100 100 54 97 100 80 95 56 6 5 4 3 0 0 3 1 0 0 0 0 1 5 74 17 5 41 28
0 0 0 0 0 0 0 0 1 0 0 0 0 0 0 0 87 100 100 96 67 100 88 99 38 5 5 0 5 0 0 0 0 0 5 5 5 4 0 5 46 5 55 40
0 0 0 0 0 0 0 0 0 0 0 0 0 0 0 0 26 32 100 100 81 87 100 80 100 87 80 5 0 0 0 0 3 4 5 95 100 45 5 5 44 55 96 100
0 0 0 1 3 0 0 0 0 0 1 2 0 0 0 0 2 98 49 60 13 100 100 100 100 99 98 5 5 2 0 0 3 0 5 34 37 86 53 5 6 8 96 91
2 0 0 1 1 0 0 0 0 0 0 0 0 0 0 0 0 9 92 31 5 100 100 100 66 100 100 25 5 19 2 0 0 0 0 1 5 6 13 29 8 4 5 5
0 0 2 0 0 0 0 0 0 0 0 0 0 0 0 0 0 0 0 34 73 97 100 98 87 100 100 100 41 5 37 3 0 0 0 0 0 0 0 0 0 0 0 0
0 3 0 0 2 1 1 0 0 0 0 0 0 2 0 0 0 0 0 0 4 49 100 100 61 70 100 84 100 45 76 19 0 0 0 0 0 0 0 0 0 0 0 0
2 1 0 0 0 0 0 0 0 0 0 0 0 0 0 0 0 0 0 0 0 0 62 100 100 79 100 100 98 33 63 50 75 0 0 0 0 0 0 0 0 0 0 0
0 0 0 0 0 0 0 0 0 0 0 0 3 0 0 0 0 0 0 0 0 0 1 100 96 90 100 100 100 100 54 100 89 73 1 2 0 0 0 0 0 0 0 0
4 2 0 0 0 0 0 0 0 0 0 0 0 0 0 0 0 0 0 0 0 0 0 59 100 100 100 100 97 54 52 9 9 5 92 100 100 95 0 0 0 0 0 0
0 0 0 0 0 0 0 0 0 0 0 0 0 0 0 0 0 0 0 0 0 0 0 0 74 100 100 82 97 100 99 52 98 58 39 83 100 24 5 40 1 0 5 79
4 4 0 0 0 0 0 0 3 5 4 0 0 0 0 0 0 0 0 0 0 0 0 0 2 75 100 100 78 62 64 100 100 94 74 39 64 5 5 10 24 0 0 1
8 4 4 4 0 3 5 5 5 5 5 0 0 0 0 0 0 0 0 0 0 0 0 0 0 2 85 96 100 88 100 53 72 100 100 100 98 63 40 10 15 17 0 0
73 88 17 5 3 5 5 1 5 1 2 0 0 0 0 0 0 0 0 0 0 0 0 0 0 0 4 84 92 100 100 100 98 72 100 100 100 84 94 47 97 30 55 20
59 64 5 5 5 6 5 4 0 0 0 0 0 0 0 0 0 0 0 0 0 0 0 0 0 2 10 50 100 92 99 100 76 91 100 100 98 93 87 100 98 100 100 100
92 97 40 6 52 50 5 3 1 0 0 0 0 0 0 0 0 0 0 0 0 0 0 0 0 2 67 43 99 90 98 100 91 92 100 100 100 100 99 100 100 100 100 100
100 98 100 12 100 21 5 0 0 0 0 0 0 0 0 0 0 0 0 0 0 0 0 0 0 14 27 43 97 100 84 94 100 100 99 100 100 100 100 100 100 100 100 100
98 100 100 6 98 6 4 3 0 0 0 0 0 0 0 0 0 0 0 0 0 0 0 0 15 81 23 60 99 100 82 69 100 100 100 100 100 100 100 100 100 100 100 100
100 97 95 77 82 5 5 5 5 0 5 4 0 5 5 5 0 0 0 0 0 0 0 0 2 62 48 90 100 100 100 100 100 100 100 100 100 100 100 100 100 100 100 100
100 100 99 100 52 5 5 5 3 5 3 0 0 5 5 2 3 5 0 0 0 20 34 15 21 84 69 91 100 100 100 100 100 100 100 100 100 100 100 100 100 100 100 100

GFSCGP_prec_cloud_162.txt.gz
Cloud_Cover
0 0 5 94 68 3 4 5 95 73 34 5 5 6 97 96 100 100 100 99 100 60 37 56 5 0 0 5 5 92 9 5 5 5 13 50 91 23 5 6 79 5 4 27
0 0 3 0 0 4 7 5 26 5 5 5 97 81 94 62 100 100 100 92 89 95 9 98 58 0 0 1 5 76 53 5 11 5 7 5 5 14 9 7 4 0 3 47
0 0 0 0 4 35 7 52 60 29 5 5 41 83 89 100 100 98 100 100 100 96 50 100 82 5 0 0 0 36 90 74 33 5 5 5 4 23 26 31 0 6 38 4
0 0 0 0 0 5 89 5 15 28 23 99 3 100 100 95 100 100 89 79 100 94 19 80 100 71 0 0 0 1 95 99 60 5 4 5 8 71 16 5 0 4 5 9
0 0 0 0 0 0 4 0 8 75 100 6 45 51 81 79 95 64 100 89 100 100 39 62 100 61 25 0 0 0 3 7 61 31 26 28 33 72 6 1 0 5 8 18
0 0 0 14 3 0 0 0 0 1 40 69 14 4 74 61 25 50 90 99 100 100 66 91 92 84 5 0 1 4 0 5 28 5 78 56 0 4 49 0 5 11 99 100
0 0 0 0 0 0 0 65 95 92 99 100 9 1 100 2 95 56 68 100 100 100 99 80 49 100 84 0 0 4 0 0 0 0 0 37 5 5 0 5 5 40 65 7
1 0 0 0 4 5 0 80 100 100 100 81 0 17 95 0 5 7 100 100 100 100 100 100 96 100 98 10 0 3 2 0 0 0 0 0 85 26 4 2 79 1 26 6
3 40 0 0 0 1 22 1 17 5 2 0 34 5 14 0 0 3 6 100 100 100 98 100 100 97 100 99 5 4 4 0 0 0 0 0 0 6 26 25 5 64 5 22
4 51 0 0 0 0 2 11 4 3 62 15 45 2 19 1 0 2 4 10 59 100 75 100 100 88 78 19 6 1 2 3 0 2 2 0 0 4 5 6 9 44 12 12
1 8 10 0 1 5 0 3 0 37 14 90 76 30 0 0 0 0 0 2 10 7 95 50 99 100 100 100 46 0 0 5 2 0 0 0 1 4 6 60 80 96 96 40
0 40 88 91 0 0 0 16 48 56 70 5 22 88 0 0 0 0 0 0 1 89 75 77 90 67 96 100 98 5 0 2 5 2 0 0 0 0 3 5 7 33 44 37
0 13 82 25 0 0 0 4 5 22 52 75 38 100 2 0 0 0 0 0 1 0 17 100 100 62 83 99 100 37 8 4 5 1 0 0 0 0 0 0 0 0 0 1
5 94 77 100 90 21 8 0 0 1 34 92 50 65 4 0 0 0 0 0 0 2 4 52 100 100 100 100 100 100 26 14 5 5 0 0 0 0 0 0 0 0 0 0
4 25 13 16 0 0 0 0 0 0 1 10 84 65 5 2 0 0 0 0 0 0 0 9 100 100 100 100 98 100 90 61 6 4 0 0 0 0 0 0 0 0 0 0
8 52 5 5 0 0 0 0 0 0 0 0 0 0 0 0 0 0 0 0 0 0 0 0 39 100 100 100 100 100 99 100 62 5 22 19 1 15 1 10 12 5 1 0
5 22 5 7 1 0 0 0 0 0 0 0 0 4 0 0 0 0 0 0 0 0 0 0 0 98 100 100 100 100 100 100 84 70 18 10 10 34 100 46 4 7 21 2
18 5 5 52 0 0 0 0 0 0 0 0 0 0 0 0 0 0 0 0 0 0 0 0 0 1 100 100 100 99 99 100 64 28 76 5 76 79 100 81 66 13 28 39
18 8 5 4 4 2 0 0 0 0 0 0 0 0 0 0 0 0 0 0 0 0 0 0 0 0 1 100 100 100 100 82 100 100 99 29 9 38 94 93 47 32 36 32
99 13 7 6 50 34 5 5 4 0 0 0 0 0 0 0 0 48 0 0 0 0 0 0 0 0 0 1 97 100 100 100 100 100 86 76 62 97 64 80 65 25 90 24
92 5 5 87 31 37 2 5 5 2 3 0 0 0 0 0 1 0 0 0 0 0 0 0 0 0 0 0 15 92 100 100 100 97 98 100 100 100 74 74 98 75 60 17
100 68 5 58 95 50 5 4 0 1 0 0 0 0 0 0 0 0 0 0 0 0 0 0 0 0 0 0 4 100 100 100 100 100 58 60 100 100 82 91 67 100 82 34
100 91 46 7 97 35 5 2 0 0 0 0 0 0 0 0 0 0 0 0 0 0 0 0 0 0 0 0 17 100 100 94 100 100 100 99 100 100 100 100 100 100 100 100
50 94 63 75 71 44 5 5 5 1 0 0 0 0 0 0 0 0 0 0 0 0 0 0 0 0 0 0 93 94 71 100 74 77 100 100 100 100 100 100 100 100 100 100
26 97 48 64 86 79 30 75 5 0 0 0 0 0 0 0 0 0 0 0 0 0 0 0 0 0 0 15 100 85 90 72 85 100 100 100 100 99 100 100 100 100 100 100
100 93 100 94 100 98 84 56 5 2 2 4 0 5 5 0 0 0 0 0 0 1 0 0 0 0 33 100 97 83 98 82 100 100 100 100 99 100 100 100 100 100 100 100

GFSCGP_prec_cloud_168.txt.gz
Cloud_Cover
0 0 10 69 100 13 86 100 100 52 27 91 75 1 100 42 87 100 96 99 69 86 98 22 87 92 5 1 0 41 38 59 48 7 10 12 19 93 6 85 5 5 4 18
0 0 29 83 100 34 18 79 100 86 4 7 62 91 100 7 17 100 64 89 65 36 74 91 100 23 6 0 3 82 6 67 54 79 63 21 49 8 12 5 5 5 13 4
0 1 1 90 100 47 0 100 55 92 3 64 100 100 100 26 90 5 100 98 79 100 100 100 64 99 6 2 0 0 1 36 92 30 84 21 69 41 69 53 5 5 35 5
0 0 2 0 0 0 96 100 48 5 2 10 1 88 96 99 20 0 6 7 38 19 100 91 100 100 78 4 0 0 5 3 81 13 14 3 16 4 19 86 0 0 1 1
0 0 0 0 0 1 100 3 1 17 5 3 3 23 6 100 96 62 2 5 89 28 84 100 100 93 100 100 25 0 0 5 26 5 11 2 5 73 100 94 0 0 0 0
0 0 0 0 0 0 37 0 2 1 12 62 100 90 100 100 32 100 97 99 96 100 60 100 57 100 100 100 53 0 0 5 1 5 7 6 74 100 100 61 1 0 0 39
0 0 0 0 3 0 0 27 97 36 100 100 76 61 42 100 100 100 99 33 100 80 39 90 100 78 100 100 72 22 0 0 5 98 69 98 65 11 15 13 19 1 76 74
20 0 0 0 0 32 0 79 72 86 100 100 46 100 5 5 76 17 1 10 100 100 63 65 100 65 100 82 92 0 0 0 2 100 81 100 14 14 1 0 0 50 26 1
100 84 7 0 1 55 35 12 96 94 86 100 64 52 1 0 3 0 0 2 16 99 93 76 100 100 62 74 60 0 0 0 0 72 100 100 40 4 5 4 0 99 19 6
94 63 4 5 0 0 12 63 61 99 98 100 64 37 100 22 0 0 59 37 80 48 28 10 100 100 83 86 88 22 0 0 0 0 35 84 15 29 3 0 0 3 6 100
5 100 99 95 0 0 0 0 0 3 100 100 72 89 16 42 2 4 0 96 100 20 89 11 100 100 85 66 41 100 17 22 26 0 0 5 0 6 5 0 3 5 96 100
4 5 64 90 31 0 6 88 2 2 39 35 100 96 8 1 0 0 0 6 16 0 0 6 6 12 100 5 98 100 100 100 71 5 25 77 5 1 0 0 0 100 100 100
5 7 97 100 86 3 0 24 15 71 86 97 100 20 19 5 1 1 18 0 0 0 0 0 13 100 99 85 80 100 100 100 100 100 57 25 2 6 5 0 0 0 79 100
5 5 98 98 100 100 99 2 0 32 99 96 100 88 80 76 44 5 50 0 0 0 0 0 0 18 100 100 28 39 96 100 100 100 10 10 1 1 0 44 65 0 0 0
100 94 55 100 76 100 81 99 4 4 2 26 98 100 54 100 93 73 0 0 0 0 0 0 0 0 23 92 11 23 8 75 100 85 91 74 76 51 10 0 0 2 0 0
92 100 100 99 100 87 100 95 5 0 0 2 100 100 35 5 14 15 5 0 0 0 18 0 0 0 0 1 5 5 5 25 93 100 100 100 100 100 47 3 5 2 5 4
94 100 100 100 100 100 86 51 3 0 0 0 22 100 38 5 4 1 0 0 0 0 9 28 0 0 0 0 0 0 5 5 100 100 100 100 100 29 12 2 2 10 2 7
100 98 38 86 95 100 100 93 35 2 5 1 1 88 15 0 0 0 0 0 0 0 0 1 60 30 0 5 0 0 0 0 59 100 100 100 12 50 82 94 5 4 0 1
100 100 54 9 89 98 100 97 31 0 0 0 0 0 1 0 0 0 0 0 0 0 0 0 0 0 0 6 50 16 0 0 0 63 93 100 100 50 5 5 6 5 4 5
100 100 100 100 26 100 100 80 100 75 4 0 0 2 4 0 0 5 4 0 0 0 0 0 0 0 0 0 0 0 0 0 2 55 98 38 95 58 64 80 55 5 5 6
100 100 100 100 81 98 100 99 100 54 35 1 3 2 1 0 4 6 25 52 6 5 0 0 0 0 0 0 0 0 0 0 0 66 100 69 70 73 100 100 98 90 5 50
100 100 100 100 100 50 100 88 100 77 5 1 0 2 31 13 1 1 12 8 2 0 0 0 0 0 0 0 34 28 0 4 0 0 68 24 38 6 97 100 100 27 16 28
66 99 100 100 100 100 100 100 100 5 8 5 0 1 34 6 5 4 0 0 0 0 0 0 0 0 14 0 0 0 0 0 0 0 27 42 69 100 66 94 100 75 34 43
75 100 100 100 59 100 100 88 95 13 59 30 1 0 1 8 15 6 5 0 0 0 0 0 0 0 19 54 74 93 0 0 16 16 0 48 100 100 100 77 97 100 88 80
92 100 100 86 100 100 9 79 86 82 5 100 5 1 6 4 4 2 2 0 0 0 0 0 0 0 0 16 34 27 0 0 42 91 10 75 100 100 97 92 100 98 100 100
100 100 100 81 99 84 90 96 100 47 68 98 82 3 1 0 0 0 0 0 0 0 0 0 0 0 27 4 0 0 0 0 54 11 70 100 63 98 93 94 71 100 100 100

GFSCGP_prec_cloud_171.txt.gz
Cloud_Cover
0 0 0 5 80 100 100 100 100 79 26 100 97 68 100 100 100 100 98 88 100 90 5 62 2 23 5 50 1 0 16 5 42 29 97 100 92 71 45 5 0 5 4 80
0 0 0 5 49 99 100 52 100 100 66 10 3 92 100 98 100 82 92 87 99 100 69 100 67 89 11 100 98 26 3 2 6 5 93 76 81 42 23 100 0 33 5 5
0 0 3 34 11 26 51 8 25 90 62 3 0 74 98 100 100 100 100 99 99 92 100 100 100 100 19 100 100 100 2 5 5 52 47 22 48 6 5 1 1 4 28 5
0 0 1 6 12 1 47 20 23 14 34 76 5 92 100 100 100 100 52 40 100 68 96 100 100 100 100 100 100 100 0 0 5 17 73 72 100 100 3 15 0 0 0 5
0 0 0 0 0 0 37 5 5 44 64 5 22 100 100 100 100 100 69 0 26 52 97 82 100 100 57 100 100 100 37 0 0 15 100 100 99 100 5 4 0 0 0 5
0 0 0 0 0 0 5 92 0 5 75 78 71 100 83 100 96 30 73 100 96 94 65 66 100 67 100 100 100 70 0 0 0 5 38 100 28 98 39 77 0 0 5 5
0 0 0 0 0 0 0 0 4 52 4 49 52 99 94 98 8 74 94 100 99 100 83 100 100 47 100 100 100 25 0 0 0 1 5 60 64 100 52 0 0 0 2 1
0 0 0 0 0 0 0 4 24 92 88 99 57 32 100 1 11 100 69 100 100 100 87 95 82 99 100 100 100 82 2 5 0 4 0 5 6 6 9 5 0 9 0 5
0 47 91 2 27 1 5 3 71 86 94 96 20 97 94 0 28 100 100 84 65 100 100 7 5 97 100 98 32 75 53 91 37 58 1 3 5 57 2 0 0 0 45 15
4 43 69 15 3 0 14 76 30 35 68 65 98 90 100 57 6 100 100 91 100 77 100 66 22 25 98 65 51 100 17 28 99 100 68 0 0 2 0 0 0 13 100 100
5 77 43 100 1 0 0 13 1 40 100 64 98 100 14 98 8 98 100 100 100 58 79 100 35 39 33 75 56 100 100 100 100 100 100 68 0 0 0 0 0 73 100 100
5 84 99 100 89 14 0 0 6 100 99 8 2 73 14 47 5 0 2 15 1 100 53 100 92 6 2 43 100 100 100 100 100 100 100 100 89 13 0 0 4 23 100 100
66 5 5 9 88 100 1 3 40 99 71 59 33 28 100 100 28 0 0 0 13 100 98 91 78 0 1 86 10 77 100 100 100 100 100 100 100 100 69 1 0 3 12 73
98 15 5 5 34 87 24 0 18 2 2 12 7 5 56 97 59 5 4 0 1 100 100 94 14 0 0 45 2 47 100 100 100 100 100 100 60 74 5 4 5 0 82 41
72 100 65 98 37 100 64 15 19 0 64 5 9 12 88 100 26 6 5 3 6 97 96 46 0 0 0 0 0 54 100 100 100 100 100 100 100 100 100 100 63 8 15 2
100 100 65 14 100 100 100 100 100 100 0 22 5 5 68 80 9 100 99 0 0 0 0 0 0 0 0 0 0 100 100 100 100 100 100 100 100 100 100 100 100 100 66 5
100 100 100 97 96 100 100 100 98 67 87 2 0 1 5 1 0 2 2 0 0 0 0 0 0 0 0 0 0 77 37 100 100 100 100 100 100 100 100 100 100 100 100 100
100 100 100 100 99 100 100 95 100 76 63 10 0 0 0 0 0 0 0 0 0 0 0 0 0 0 0 0 0 0 4 5 77 100 100 100 100 100 100 100 100 100 100 66
100 100 100 100 90 100 20 100 100 94 99 5 0 0 0 0 0 0 0 0 0 0 0 0 0 0 0 0 0 0 0 0 2 24 100 100 100 100 100 100 100 100 100 98
87 100 100 99 100 100 100 64 77 88 6 4 0 0 0 0 0 0 0 0 0 0 0 0 0 0 0 0 0 0 0 0 0 94 56 100 100 100 100 100 100 100 100 74
98 29 76 100 62 100 100 92 75 96 58 100 5 0 0 0 0 0 0 0 3 3 0 0 0 0 0 0 0 0 2 0 0 2 75 100 100 100 100 100 100 58 53 23
78 45 5 100 86 80 100 100 15 100 5 76 29 0 0 0 0 0 0 0 0 0 0 0 0 0 0 0 0 0 0 0 0 0 12 40 99 100 99 91 100 96 74 77
4 6 82 14 100 100 89 100 100 91 8 61 3 7 0 0 0 0 0 0 0 0 0 0 0 0 0 0 5 0 0 0 0 0 0 0 5 26 72 61 41 95 71 100
11 99 12 4 100 100 100 100 100 73 31 96 2 4 3 0 0 0 0 0 0 0 0 0 0 0 0 0 0 0 0 0 0 0 0 0 5 50 66 81 100 100 100 77
65 5 5 5 61 100 100 78 96 55 96 96 32 0 5 0 0 0 0 0 0 0 0 0 0 0 0 0 0 0 0 0 0 0 0 12 80 100 94 96 100 100 100 100
31 8 5 4 100 100 100 100 100 99 53 100 93 2 0 0 0 0 0 0 0 0 0 0 0 0 0 0 0 0 0 0 0 0 0 96 100 100 58 83 88 100 100 100

GFSCGP_prec_cloud_174.txt.gz
Cloud_Cover
0 0 0 0 1 68 100 100 100 100 94 100 20 16 100 100 100 100 99 71 60 15 1 2 0 62 24 100 99 54 0 61 59 51 22 5 8 89 100 92 6 100 100 41
0 0 0 0 1 24 100 98 81 100 100 100 57 6 75 100 100 100 100 80 65 96 3 44 5 62 12 100 100 100 0 5 5 14 79 5 11 82 91 20 10 30 39 18
0 0 0 0 0 5 100 100 99 99 100 100 100 75 44 100 100 100 100 99 68 97 100 22 87 54 87 98 92 100 33 4 5 5 10 21 25 89 70 6 5 5 5 5
0 0 0 0 0 1 10 100 100 99 100 100 68 25 18 100 13 92 98 96 100 93 97 62 88 100 100 100 100 100 45 0 2 38 51 72 66 26 5 5 5 3 1 1
0 0 0 0 0 0 5 6 92 6 93 7 54 3 77 99 82 72 25 100 100 75 46 87 78 100 100 100 37 100 100 0 0 5 5 5 16 42 11 0 0 0 0 0
0 0 0 0 0 0 5 99 96 37 74 39 67 97 73 89 87 96 98 50 68 76 4 96 76 46 88 100 31 100 100 3 0 3 3 76 94 5 1 27 2 0 0 0
0 0 0 0 0 0 6 41 5 43 74 30 5 9 49 34 68 100 100 100 7 11 22 60 92 87 88 100 100 100 100 3 0 0 4 5 23 60 41 4 1 0 0 7
0 0 0 0 0 0 1 0 0 99 99 100 100 9 5 6 100 100 100 100 100 80 98 100 100 100 98 100 100 100 96 5 0 0 40 19 97 85 45 5 0 0 0 31
8 7 0 0 43 6 0 20 7 37 32 75 48 5 16 0 38 100 100 100 100 93 100 95 86 100 99 100 100 100 100 64 7 4 0 3 2 8 96 5 5 0 0 1
100 100 4 5 5 4 2 73 4 39 5 98 5 74 54 2 4 28 100 100 100 96 100 8 56 68 100 98 100 100 100 100 100 14 8 0 3 4 2 1 4 5 0 6
85 100 87 5 4 5 0 4 1 97 30 78 57 100 100 5 5 0 3 18 67 28 26 68 90 22 94 100 100 100 100 100 100 100 100 6 5 26 4 3 5 5 0 0
90 100 100 4 7 4 83 2 26 95 93 100 99 100 8 100 40 0 2 100 100 100 73 24 63 56 67 100 100 100 100 100 100 100 100 19 6 94 99 89 10 95 42 53
75 100 100 5 30 56 20 99 5 16 99 80 100 7 5 74 4 0 2 7 100 100 100 38 5 100 88 99 100 100 100 100 100 100 100 100 65 100 100 100 84 44 100 100
94 100 100 20 5 67 5 5 5 94 100 21 98 4 0 0 5 2 0 0 47 100 94 8 92 50 98 29 35 84 100 100 100 100 100 100 100 100 100 100 100 76 98 100
58 51 100 33 15 6 22 6 85 5 10 46 45 5 0 0 10 0 0 0 3 95 100 74 100 100 99 27 1 22 100 100 100 100 100 100 100 100 100 100 93 76 92 100
100 92 69 62 96 84 100 12 76 40 6 60 4 5 0 1 100 100 54 86 11 0 0 4 99 100 22 2 1 4 50 100 100 100 100 100 100 100 100 100 100 100 100 100
100 100 99 73 100 100 100 76 93 38 13 4 3 0 0 78 100 100 73 100 6 0 0 0 54 96 21 99 0 0 5 85 84 100 82 100 100 100 100 100 100 100 100 100
100 100 100 100 98 92 100 80 89 98 100 12 4 3 0 33 100 8 2 46 7 0 0 0 3 50 47 14 0 0 12 65 98 91 100 48 100 100 100 100 100 100 100 100
100 100 100 100 77 61 100 100 100 100 23 92 10 0 0 0 0 0 0 0 0 0 0 0 0 0 3 2 0 0 2 25 90 83 99 100 100 100 100 100 100 100 100 100
100 100 100 100 100 56 98 79 96 64 56 12 5 1 0 0 0 0 0 0 0 0 0 1 1 0 0 0 0 0 0 0 41 100 100 100 100 100 100 100 100 100 100 80
100 100 100 100 100 26 53 96 100 66 39 2 27 5 2 0 0 0 0 0 0 0 2 0 0 3 0 0 0 0 0 0 0 50 100 100 100 100 100 100 100 86 65 100
100 100 100 100 100 100 95 72 43 100 45 9 5 4 5 5 0 0 0 0 0 0 0 0 0 0 0 0 0 0 0 0 0 0 7 94 100 100 100 100 100 96 100 100
100 100 100 100 100 100 100 91 18 8 5 28 5 5 5 5 0 0 0 0 0 0 0 0 0 0 0 0 0 0 0 0 0 0 0 0 10 72 100 100 100 100 99 100
87 88 100 100 100 81 41 83 87 21 9 11 4 1 3 1 2 0 0 0 0 0 0 0 0 0 0 0 0 0 0 0 0 0 0 0 2 92 86 100 100 100 100 100
99 94 98 100 97 5 5 5 99 100 100 55 21 5 5 5 7 5 0 0 0 0 0 0 0 0 0 0 0 0 0 0 0 0 0 0 19 99 100 94 83 100 100 100
100 63 17 16 6 6 5 17 99 88 100 100 81 29 32 5 5 3 0 0 0 0 0 0 0 0 0 0 0 0 0 0 0 0 0 18 39 44 70 100 100 100 100 100

GFSCGP_prec_cloud_180.txt.gz
Cloud_Cover
0 0 0 0 0 0 0 0 10 100 100 5 37 5 5 83 99 100 78 72 100 77 59 4 5 0 0 5 8 98 100 0 16 5 5 4 5 18 63 99 98 91 5 6
0 0 0 0 0 1 0 0 0 99 100 88 5 27 17 80 93 99 100 100 100 79 6 7 5 1 0 0 16 100 96 0 0 5 5 3 5 100 100 100 100 7 39 5
0 0 0 3 4 2 0 4 5 97 100 100 81 52 79 17 100 100 99 94 100 100 100 16 31 4 4 29 18 13 100 49 0 2 1 5 3 2 2 1 0 3 3 0
0 0 0 0 0 0 0 2 4 11 100 100 100 100 89 48 75 34 99 100 75 16 8 5 80 6 49 98 75 68 44 100 2 2 0 0 1 2 0 0 0 0 0 4
0 0 0 0 0 0 2 0 0 0 99 100 100 84 100 75 55 61 84 5 100 100 96 5 93 100 100 39 95 66 9 99 51 5 5 4 5 5 0 5 3 0 0 0
7 5 3 0 0 0 4 0 0 0 0 88 100 100 100 99 63 81 22 83 35 75 50 100 54 82 98 64 9 82 18 61 100 1 5 5 5 5 5 3 0 0 0 0
5 7 5 1 0 0 0 0 0 0 0 5 2 77 100 83 88 30 64 71 42 100 100 96 78 100 70 42 100 20 8 38 100 1 5 5 7 5 37 5 5 5 0 1
5 5 7 5 5 0 0 0 0 0 0 4 4 3 98 75 100 18 96 99 73 98 65 41 5 95 95 88 100 91 88 94 100 1 0 4 5 40 34 22 5 5 4 0
5 4 0 0 13 10 0 0 0 0 0 3 5 5 6 28 12 95 99 99 100 100 12 19 6 70 58 32 50 94 90 100 100 1 0 5 13 5 30 5 77 88 1 0
11 7 3 0 4 57 0 1 2 1 0 5 11 15 24 14 2 2 87 53 12 31 7 50 54 27 45 98 68 100 69 100 100 0 1 5 31 5 71 90 5 5 0 0
32 94 39 5 7 4 5 7 4 4 4 5 23 100 75 5 5 2 2 12 53 72 100 26 66 100 97 77 76 100 68 100 100 99 5 5 19 5 5 5 5 1 3 0
94 70 79 100 5 5 5 5 72 94 2 0 4 100 74 66 17 0 0 0 2 93 32 100 12 100 100 55 100 99 100 48 100 75 100 100 100 57 17 4 6 5 5 0
92 84 81 61 32 77 5 5 33 96 59 1 0 81 100 95 91 56 3 0 0 0 0 100 100 98 100 98 83 95 100 100 100 100 100 100 100 100 100 95 8 56 26 2
98 90 100 100 100 70 9 48 7 15 75 16 1 4 100 100 99 19 19 3 2 0 0 51 100 16 100 100 13 100 100 100 100 100 96 86 99 100 100 100 100 90 70 99
94 92 100 100 100 100 23 59 10 5 11 5 5 0 98 100 100 100 97 100 28 0 0 0 99 35 77 100 74 17 91 96 100 100 42 61 100 94 100 55 100 100 99 76
100 98 100 100 100 100 98 47 72 100 5 57 20 4 0 63 100 100 100 100 96 73 0 0 5 97 33 93 83 50 65 99 100 100 100 27 92 49 98 100 99 91 100 100
100 100 99 100 100 100 96 100 78 5 52 100 100 77 0 0 4 35 88 62 5 5 0 0 0 4 21 85 89 95 29 15 37 66 90 99 100 92 54 40 74 100 84 98
94 100 100 100 100 100 100 100 95 97 63 89 100 81 6 2 22 56 0 0 0 0 0 0 0 0 0 5 12 3 15 13 11 8 14 5 34 99 82 5 40 68 79 72
100 100 69 100 100 100 100 100 96 100 92 100 100 100 100 21 0 0 0 0 2 89 25 0 0 0 0 0 0 0 4 5 47 5 5 6 2 12 27 40 72 100 100 67
100 100 100 8 96 100 100 100 100 100 100 100 88 100 100 98 5 5 0 0 1 100 8 3 0 0 0 0 0 0 1 3 2 5 5 5 5 2 11 26 21 100 100 43
79 99 69 88 60 100 100 100 100 87 100 100 93 93 58 89 5 2 0 0 0 6 47 3 1 0 0 0 0 0 0 0 0 0 0 0 1 0 5 6 6 24 47 69
86 82 54 97 14 98 100 100 100 71 100 100 98 68 52 13 100 58 63 0 0 0 58 77 56 5 0 0 0 0 0 0 0 0 0 0 0 0 5 100 79 32 66 100
96 75 35 95 54 99 100 100 100 99 100 66 99 100 100 94 25 40 4 5 0 0 0 0 0 0 0 0 0 0 0 0 0 0 0 0 0 1 27 59 56 45 58 98
32 66 60 70 96 94 98 98 56 95 88 100 99 100 100 94 26 5 3 0 0 0 0 0 0 0 0 0 0 0 0 0 0 0 0 6 1 11 18 44 36 24 66 93
89 97 98 92 100 100 100 16 98 100 92 86 96 100 100 74 5 5 5 5 5 0 0 0 0 0 0 0 0 0 0 0 0 0 0 0 1 68 32 100 84 76 67 100
100 100 94 100 100 97 93 100 100 95 100 82 78 100 100 97 19 5 6 4 4 5 5 1 0 0 0 0 0 0 0 0 0 0 0 4 53 52 92 47 100 100 94 93

GFSCGP_prec_cloud_183.txt.gz
Cloud_Cover
0 0 0 0 0 0 0 0 2 1 5 90 5 5 72 85 100 100 73 5 28 22 97 0 25 0 0 0 1 100 100 41 20 5 77 96 43 53 19 53 100 100 72 8
0 0 0 2 0 0 0 0 2 4 5 100 59 40 5 11 78 99 98 86 11 75 100 43 0 5 0 9 0 5 68 80 4 5 5 5 5 11 7 47 57 28 39 5
0 0 0 0 0 0 0 3 0 1 0 34 100 56 62 10 5 17 59 100 81 100 100 62 65 56 4 2 0 4 4 27 5 1 5 5 5 3 3 6 17 76 3 5
0 0 0 0 0 0 6 5 4 0 4 41 59 100 95 80 43 24 10 59 100 100 100 100 100 60 40 5 5 5 44 5 75 0 1 5 6 5 5 5 1 0 0 5
0 0 0 0 0 0 3 0 0 0 4 14 5 92 100 80 50 38 56 96 73 100 100 97 46 53 21 86 14 32 23 7 100 1 18 5 2 5 5 5 0 0 0 0
1 0 0 0 0 0 0 0 0 0 0 0 0 6 100 100 61 6 5 22 85 79 98 100 100 100 100 29 64 19 29 5 90 93 4 20 5 5 5 5 5 0 0 5
5 2 0 0 0 0 1 0 0 0 0 1 4 0 13 100 100 100 17 40 60 29 54 100 100 84 100 65 85 84 10 5 33 100 2 5 5 20 5 7 0 0 0 1
95 5 5 0 0 3 5 1 4 0 0 0 5 4 5 14 100 100 83 91 26 6 5 5 52 100 100 99 78 39 12 10 42 100 0 5 66 7 6 2 0 5 4 0
100 100 92 5 4 0 0 0 0 0 0 0 6 4 14 1 4 95 90 10 27 8 38 7 5 5 68 100 80 100 100 100 100 100 25 4 5 44 5 5 10 7 8 4
24 5 8 5 5 4 4 0 30 4 0 0 5 83 62 5 2 36 100 97 27 100 71 82 100 41 62 94 62 74 24 84 100 100 36 0 5 32 28 5 5 100 59 5
7 5 3 4 5 5 5 3 1 4 3 5 23 98 23 20 4 1 10 99 100 41 90 100 100 100 100 99 76 74 92 100 97 96 55 0 4 23 35 39 5 8 4 0
52 5 5 5 5 5 7 5 5 5 1 0 2 100 100 91 5 5 0 0 2 46 70 18 68 100 90 100 100 82 100 96 100 85 89 22 33 41 5 5 44 5 5 0
72 23 17 6 3 81 93 11 16 5 43 52 3 88 100 100 89 10 0 0 0 0 8 5 18 99 57 100 86 50 98 100 100 100 100 94 100 100 98 77 5 5 0 0
25 19 5 62 100 59 70 35 88 94 62 5 3 0 79 94 93 35 2 0 0 0 0 4 3 68 96 52 98 62 100 92 100 100 50 91 100 100 100 100 100 50 0 0
70 9 41 100 100 48 39 99 100 75 82 5 5 0 0 98 100 98 99 51 5 0 0 0 0 25 8 11 64 86 62 100 100 100 57 72 6 93 98 100 98 100 100 39
38 38 23 97 100 99 14 100 100 99 100 37 5 0 0 21 97 100 6 11 92 5 0 0 0 0 0 1 84 100 55 93 100 100 29 100 36 28 54 100 88 85 17 81
97 15 100 97 100 94 70 82 100 100 100 100 45 14 5 4 100 100 100 95 23 17 5 5 0 0 0 0 100 53 82 49 54 100 89 43 92 8 13 78 69 90 62 30
84 75 84 28 100 48 9 96 100 100 100 100 86 5 5 0 1 15 34 39 5 21 23 5 4 0 0 0 62 98 6 82 80 24 5 20 100 93 56 20 15 5 29 70
92 100 38 5 80 80 99 100 100 100 100 100 96 5 0 0 0 5 2 0 0 1 7 3 2 0 0 0 0 42 25 14 49 61 7 5 10 50 59 40 51 61 61 38
100 100 100 97 29 26 100 100 100 97 100 100 100 100 5 1 7 96 3 0 0 0 0 5 5 0 0 0 0 0 32 20 5 5 8 5 26 10 34 12 16 26 22 1
54 98 86 72 7 37 100 100 100 27 100 100 100 98 20 29 100 18 5 5 0 0 2 4 41 27 1 0 0 0 0 0 5 0 4 5 2 4 4 2 11 10 36 68
95 43 29 82 81 26 100 100 100 100 100 100 100 97 95 92 57 12 5 5 4 0 0 41 29 91 33 1 0 0 0 0 0 0 0 1 0 0 1 2 1 50 100 100
100 49 5 5 15 50 100 100 100 100 100 100 100 100 74 99 21 5 5 5 5 4 0 0 0 6 14 7 5 5 0 0 0 0 0 0 0 0 0 6 16 7 35 34
82 44 41 81 11 6 97 75 100 100 100 100 100 100 100 100 73 6 11 6 68 58 5 0 0 0 0 0 0 0 0 0 0 0 0 0 0 5 0 0 0 46 25 16
19 100 73 100 100 53 79 63 100 100 100 100 100 100 100 100 100 57 12 25 5 3 4 5 0 0 0 0 0 0 0 0 0 0 0 0 0 0 0 4 0 4 90 68
95 100 100 100 83 5 40 64 100 100 100 100 100 100 100 100 100 100 100 99 19 0 0 4 0 0 0 0 0 0 0 0 0 0 0 3 0 0 9 24 14 62 58 73

GFSCGP_prec_cloud_186.txt.gz
Cloud_Cover
0 0 0 5 6 3 0 5 5 5 5 5 15 5 6 8 26 80 100 100 99 88 82 72 5 0 0 2 0 100 15 99 90 100 92 100 100 58 98 92 97 69 94 10
0 0 0 0 0 0 0 5 10 4 5 5 5 55 5 5 15 99 86 100 100 98 46 56 76 6 4 0 0 2 3 12 51 95 69 98 81 45 48 56 100 100 100 46
0 0 0 0 0 0 0 9 5 2 0 0 1 19 57 5 5 91 100 92 100 97 69 99 100 53 1 1 0 2 1 8 62 11 6 22 34 25 79 8 92 100 100 34
0 0 0 0 0 0 5 12 4 2 0 90 0 46 98 81 18 6 100 100 100 100 66 25 100 58 5 4 0 5 2 8 98 2 7 6 6 12 5 5 16 6 9 2
4 0 0 0 5 0 5 0 4 2 5 53 45 23 99 28 84 5 16 90 100 100 100 98 82 100 88 1 5 5 5 20 46 89 8 90 98 100 5 30 12 11 4 4
5 0 0 0 0 0 0 0 0 0 0 1 87 11 94 80 34 46 47 99 93 97 91 100 100 7 5 25 6 25 52 29 33 100 31 37 15 74 91 2 0 0 18 0
100 17 5 5 0 0 4 4 5 64 76 63 34 2 94 55 5 94 100 34 20 88 100 84 99 100 100 100 41 16 16 5 36 94 100 16 75 4 7 7 0 5 30 22
78 100 60 5 5 5 0 5 5 89 90 93 11 42 93 4 0 62 99 74 83 6 86 82 100 100 100 96 92 90 10 5 5 16 100 1 49 29 99 5 95 31 46 42
12 92 100 100 50 5 0 3 0 4 5 1 21 79 20 4 0 0 83 100 70 43 26 32 41 74 95 20 99 100 99 34 5 91 100 6 5 5 14 6 5 1 15 39
2 0 3 8 72 92 5 5 3 2 4 20 57 59 100 5 2 0 0 32 100 100 78 29 5 34 5 12 82 68 94 100 23 6 100 38 2 17 9 17 51 3 4 1
5 2 0 0 4 8 7 5 5 5 4 25 66 100 44 5 4 1 0 0 5 81 51 95 5 53 100 40 96 92 82 37 42 84 100 75 4 5 5 5 80 5 4 4
11 5 5 5 0 5 5 60 5 5 4 3 60 100 8 28 5 5 5 0 0 28 18 89 62 6 14 100 100 67 72 61 54 91 100 100 0 5 8 10 5 5 4 28
31 36 33 15 5 9 49 100 25 5 5 52 81 95 4 96 5 14 5 0 0 0 21 96 96 100 100 32 92 100 97 100 100 80 67 64 1 21 67 14 26 7 4 0
88 92 80 58 74 35 16 6 6 5 67 72 79 52 100 68 56 5 5 0 0 0 0 0 48 34 5 71 78 100 90 93 97 100 100 71 100 100 100 100 98 30 14 0
5 92 79 100 95 100 97 58 16 53 100 100 100 71 47 44 87 92 6 3 0 0 0 0 0 3 5 82 100 99 74 85 98 98 100 97 60 88 86 100 100 13 68 2
5 5 24 47 100 22 6 9 47 100 100 100 98 100 5 1 3 93 5 5 0 0 0 0 0 0 4 5 38 98 100 71 100 94 100 100 97 100 37 44 68 37 46 100
12 5 93 100 100 100 22 25 79 100 100 100 100 22 34 0 0 29 5 5 88 12 6 5 3 0 0 0 3 5 5 92 70 98 100 100 68 84 81 26 70 95 100 79
70 83 33 100 100 40 58 100 100 100 100 100 100 97 10 5 0 3 53 9 82 100 100 91 16 0 0 0 0 0 2 0 98 39 70 100 83 38 100 91 49 46 58 77
100 100 82 77 98 78 100 93 92 98 100 100 100 39 96 5 0 5 6 59 5 97 100 100 15 5 2 0 0 0 0 0 2 85 10 94 100 89 92 100 75 62 86 96
100 100 42 55 44 100 100 68 97 100 100 100 100 100 100 6 4 77 5 5 80 100 97 6 2 1 5 5 3 0 0 0 0 11 6 92 11 80 53 36 96 97 94 88
98 100 98 100 76 100 100 98 71 100 100 100 100 100 100 21 7 100 28 45 5 0 0 0 0 0 0 0 0 0 0 0 0 11 43 5 22 30 5 5 5 5 20 13
60 100 100 100 100 99 100 74 53 100 100 100 100 100 100 18 30 100 90 6 4 3 3 0 0 0 0 5 4 3 0 0 0 0 3 35 4 3 3 5 3 6 14 82
9 96 100 100 100 100 99 43 100 100 100 100 100 100 100 86 15 71 88 5 5 5 0 0 0 0 0 0 5 5 4 0 0 0 0 0 0 0 0 0 3 1 0 0
35 83 100 100 93 85 41 93 96 99 100 100 100 100 100 100 79 39 5 5 5 9 7 5 0 0 0 0 2 5 2 0 0 0 0 5 6 10 8 12 5 10 6 1
48 23 100 100 96 91 69 90 52 97 100 100 100 100 100 100 99 55 12 4 4 5 5 5 5 1 0 0 0 0 0 0 0 0 0 2 2 5 2 4 4 0 4 18
88 85 32 100 100 96 80 7 5 50 98 100 100 100 100 100 98 95 98 42 11 5 4 5 2 2 5 4 1 0 0 0 0 0 0 3 0 0 0 0 13 90 79 42

GFSCGP_prec_cloud_192.txt.gz
Cloud_Cover
0 0 0 1 10 81 100 61 14 95 83 0 8 4 3 1 0 0 36 51 68 32 80 59 98 7 2 0 2 5 48 1 5 62 95 14 5 5 64 100 26 91 43 100
0 0 0 0 0 17 3 5 12 100 6 0 3 5 100 74 0 0 7 8 5 92 81 100 89 65 24 1 0 0 0 3 19 90 74 66 22 33 36 99 65 94 100 87
0 0 0 0 0 1 0 4 8 95 46 0 0 4 25 100 97 0 0 51 52 97 100 100 52 100 76 3 0 0 0 0 18 5 71 5 5 57 67 5 17 96 11 23
0 0 0 0 0 0 0 88 92 5 0 1 2 1 95 100 100 100 10 2 68 96 100 100 100 100 100 1 3 2 0 0 0 1 49 68 66 100 100 100 52 5 5 21
12 0 0 0 0 0 0 5 0 0 0 0 22 27 98 100 100 100 32 0 7 5 100 99 97 100 73 3 100 91 30 0 0 0 7 1 80 100 100 100 100 5 5 39
57 100 81 3 4 0 0 2 0 0 4 5 14 18 100 90 99 94 99 100 2 1 85 100 100 100 88 62 100 100 100 100 3 0 74 32 0 41 93 90 8 0 3 33
99 100 91 100 100 86 5 1 0 2 98 56 94 68 100 3 78 100 53 18 26 6 0 8 97 89 100 100 100 98 100 84 4 0 83 93 52 4 5 48 88 9 0 4
0 5 8 1 60 100 100 98 6 23 100 99 16 100 100 98 84 20 1 34 100 99 5 4 97 100 100 100 48 100 100 100 5 1 84 40 97 31 87 100 10 3 85 100
0 5 99 5 0 1 61 100 58 57 67 97 98 91 6 77 5 5 5 3 1 96 100 14 100 100 100 100 100 100 100 87 64 14 94 100 17 95 3 17 85 0 4 52
1 4 5 75 2 5 4 5 90 100 86 9 7 99 50 2 12 52 4 3 0 94 90 100 100 96 100 100 100 79 84 7 86 39 5 44 35 100 9 33 21 100 1 8
17 51 5 99 69 11 6 5 5 59 100 100 80 93 5 3 77 84 76 77 4 0 84 100 77 47 100 96 98 100 80 100 100 8 20 11 100 100 2 60 97 68 5 4
61 83 14 5 65 80 6 5 5 5 38 46 88 82 16 39 100 84 3 100 100 96 2 100 100 74 34 100 100 100 100 100 49 5 88 100 100 100 18 0 0 5 3 2
64 92 73 19 59 65 93 100 5 5 42 5 49 89 100 5 58 4 45 100 100 100 32 7 100 100 63 6 52 60 48 83 98 58 23 94 100 100 71 48 24 4 5 5
8 98 16 85 97 88 100 99 17 47 88 62 86 100 8 5 4 4 26 36 99 100 3 0 92 100 100 100 6 5 6 100 100 61 75 94 100 100 22 1 98 70 51 34
40 55 100 100 100 100 100 100 100 33 19 61 90 100 95 96 77 100 52 2 4 0 0 0 11 92 100 62 100 68 5 24 100 99 100 81 100 100 100 53 23 6 81 96
93 10 99 100 100 100 100 100 100 100 96 100 100 100 100 36 94 69 100 38 0 0 0 0 0 0 0 45 62 29 6 6 76 100 92 100 100 100 100 100 100 100 100 100
60 87 50 42 100 100 100 100 100 100 100 98 75 98 100 9 7 0 87 6 2 0 0 0 0 0 0 0 3 9 98 88 100 30 40 97 79 100 100 100 100 100 100 92
7 100 100 10 99 84 99 100 100 100 100 95 82 95 6 2 19 11 99 8 3 0 0 0 0 0 0 0 0 2 100 95 20 100 100 26 100 100 100 99 91 92 100 100
0 5 36 26 88 43 100 100 100 100 100 89 100 100 94 2 95 46 100 100 16 0 0 0 0 0 0 0 0 0 1 100 8 85 100 64 20 96 90 65 100 33 14 29
10 0 39 20 0 5 88 100 100 100 100 99 6 9 6 73 95 100 100 100 100 0 2 0 0 0 0 19 1 0 0 0 5 4 69 16 41 89 88 97 100 100 94 100
70 100 72 45 71 92 97 85 100 100 100 100 29 4 4 0 100 100 100 100 64 18 8 5 1 0 0 8 68 4 0 0 0 0 0 13 26 12 91 76 70 100 92 33
72 100 100 100 97 100 100 82 54 38 5 100 25 4 5 5 72 45 100 100 100 100 100 99 22 40 0 0 3 29 34 1 2 0 0 0 4 1 0 26 99 100 100 60
89 47 13 96 100 100 98 99 67 22 5 97 75 84 5 5 24 37 100 100 100 100 100 100 100 100 0 0 0 11 1 0 0 0 0 0 0 0 0 50 0 5 81 56
100 100 100 100 100 59 20 19 13 100 100 100 100 100 78 47 25 100 100 100 100 100 100 100 100 100 22 0 0 0 0 0 0 0 0 0 0 0 51 93 66 95 100 100
82 100 100 92 100 100 100 100 99 100 100 100 100 100 94 11 100 100 100 100 100 100 100 100 100 96 4 0 0 0 0 0 0 0 0 0 0 0 0 0 0 0 0 0
16 100 100 100 99 100 97 100 100 100 100 100 100 100 100 67 100 100 100 100 100 100 100 100 100 20 1 0 0 0 0 0 0 0 0 0 0 0 3 34 16 86 0 1

GFSCGP_prec_cloud_195.txt.gz
Cloud_Cover
0 0 0 0 0 14 81 100 60 48 46 4 3 0 0 78 100 8 2 65 100 83 91 37 25 5 5 1 0 0 5 0 0 11 5 24 100 100 100 100 100 96 100 100
0 0 0 0 0 0 3 2 0 74 15 58 6 14 5 0 81 83 100 97 68 29 66 35 33 82 10 4 0 0 0 0 3 7 15 5 5 9 11 23 19 92 100 100
0 0 0 0 0 0 0 0 2 18 86 5 5 17 5 3 70 100 100 100 51 83 16 95 98 100 100 16 0 0 0 0 1 6 8 7 12 30 6 34 28 41 100 100
3 0 0 0 0 0 0 0 12 53 7 0 0 0 27 17 100 100 100 100 100 58 93 85 49 100 100 22 19 1 1 0 0 0 5 89 5 5 7 93 25 83 100 100
1 27 19 3 0 0 0 0 0 0 0 0 2 24 5 16 100 100 100 100 100 100 0 3 92 100 100 100 90 1 70 6 0 0 4 93 41 22 78 99 97 14 89 100
21 60 78 41 100 38 0 0 0 0 0 18 34 67 33 100 100 83 100 100 100 100 22 4 98 100 100 100 100 1 100 18 67 1 2 100 43 100 97 97 18 100 56 100
0 1 6 14 100 93 100 96 23 0 0 5 71 67 99 100 100 100 100 100 100 100 3 8 100 100 100 78 96 21 67 100 91 29 4 53 64 35 100 100 100 100 87 98
0 0 0 1 1 5 81 100 87 71 16 16 15 72 100 100 100 100 100 100 100 100 1 5 38 100 100 96 9 56 99 100 92 14 1 90 100 92 82 98 89 87 22 6
0 1 0 8 9 2 0 1 30 20 5 5 5 62 100 47 26 100 100 100 100 76 2 91 8 36 100 99 97 100 100 100 100 98 0 82 100 100 90 13 96 54 19 29
0 0 0 0 23 23 4 5 1 3 76 74 4 98 100 76 88 98 5 35 100 28 26 3 69 68 16 97 89 94 100 100 100 83 0 34 100 99 100 97 40 60 0 0
100 90 5 1 8 86 38 5 5 3 4 61 100 30 95 100 86 39 0 44 100 72 3 87 19 28 100 100 100 100 93 100 70 5 0 0 30 20 7 53 29 13 80 5
49 100 65 5 6 13 100 100 24 5 5 0 35 20 29 48 62 5 58 38 100 100 100 89 0 5 100 100 100 98 50 5 29 5 2 5 18 5 3 5 4 100 93 8
4 39 57 14 98 56 100 100 57 17 4 2 1 1 57 81 11 60 98 96 100 100 100 100 100 27 22 97 96 96 100 5 100 33 5 4 84 5 42 8 4 80 66 3
41 9 3 3 5 100 99 43 100 100 40 4 5 36 73 2 6 5 38 96 100 100 100 98 99 100 0 71 28 48 86 96 100 30 10 5 64 64 42 20 5 4 86 1
9 4 5 4 10 100 100 24 100 100 98 5 7 5 97 62 61 20 5 15 100 100 100 92 12 20 5 31 95 100 100 100 78 5 91 73 38 6 12 79 100 82 4 97
100 10 5 100 100 100 100 68 100 100 100 100 57 40 73 31 100 75 3 2 66 5 6 15 0 5 5 0 62 100 100 100 7 6 54 100 80 32 30 5 100 100 23 5
100 100 8 14 100 100 14 73 100 100 100 100 100 7 97 95 90 100 8 37 100 81 32 1 5 0 0 0 0 5 55 26 15 22 40 49 29 69 20 86 98 100 84 89
76 100 12 5 78 62 96 100 100 100 100 100 75 24 5 99 24 100 100 98 100 100 71 0 0 0 0 0 0 0 0 5 67 34 51 5 41 6 52 80 100 97 100 100
100 100 100 16 9 1 4 100 100 100 100 100 100 99 100 79 58 5 100 100 100 100 68 13 0 0 0 0 0 0 0 0 0 0 42 99 98 5 46 7 60 100 100 100
4 5 31 1 0 3 3 68 100 97 49 100 100 83 84 42 100 100 100 100 100 100 100 100 35 0 0 0 0 0 0 0 0 0 4 92 94 99 5 5 5 8 13 98
1 56 100 58 58 0 0 0 86 63 36 98 100 82 100 22 100 92 81 96 100 100 100 100 100 98 5 1 0 0 0 0 0 0 0 4 5 4 5 5 5 5 17 42
4 5 52 97 85 4 0 0 30 81 5 45 29 72 91 98 80 5 100 100 100 100 100 100 100 93 58 100 10 0 0 0 0 0 0 0 0 0 4 5 3 1 5 0
93 99 98 91 5 86 87 4 37 16 97 81 19 31 99 100 100 100 100 100 100 100 100 100 100 100 98 4 46 0 0 0 0 0 0 0 0 0 0 3 5 0 0 1
99 97 100 100 99 88 100 34 2 100 100 100 100 99 100 100 98 100 100 100 100 100 100 100 100 100 100 81 100 42 8 99 1 0 0 0 0 0 0 0 0 0 2 100
26 100 100 100 100 94 97 72 66 100 100 100 100 59 100 100 100 100 100 100 100 100 100 100 100 100 85 5 94 95 100 100 42 29 0 0 0 0 0 0 4 0 0 0
37 15 99 100 100 100 100 74 100 100 100 100 100 96 100 100 100 100 100 100 100 100 100 100 100 100 70 56 100 100 100 99 5 22 3 0 0 0 0 0 0 81 35 52